Regional Weather Roundup
Issued by NWS Wakefield, VA

Home | Current Version | Previous Version | Graphics & Text | Print | Product List | Glossary On
Versions: 1 2 3 4 5 6 7 8 9 10 11 12 13 14 15 16 17 18 19 20 21 22 23 24 25 26 27 28 29 30 31 32 33 34 35 36 37 38 39 40 41 42 43 44 45 46 47 48 49 50
000
ASUS41 KAKQ 211815
RWRAKQ

REGIONAL WEATHER ROUNDUP
NATIONAL WEATHER SERVICE WAKEFIELD VA
200 PM EDT THU SEP 21 2017

Note: "fair" indicates few or no clouds below 12,000 feet with no
significant weather and/or obstructions to visibility. * = Denotes
station may not report precipitation (e.g., rain,snow,etc.),
thunder or fog.

VAZ042-051-052>054-056-211900-
NORTHERN VIRGINIA

CITY           SKY/WX    TMP DP  RH WIND       PRES   REMARKS
WASH NATIONAL  PTSUNNY   86  64  47 N10       30.03F
DULLES         PTSUNNY   84  64  50 NE7       30.05F
FORT BELVOIR   MOSUNNY   86  63  45 N8        30.02F
QUANTICO       MOSUNNY   83  67  58 SE3       30.04F
FREDERICKSBRG* SUNNY     86  65  49 CALM      30.02F
STAFFORD*      SUNNY     85  62  45 N9        30.08S
WARRENTON      SUNNY     88  60  38 N10       30.04F
CULPEPER*      SUNNY     86  64  48 N8        30.05F
MANASSAS*      MOSUNNY   86  65  49 VRB3      30.04F
LEESBURG*      MOSUNNY   82  64  54 NE3       30.06F
WINCHESTER     SUNNY     81  61  50 NW3       30.07F
FRONT ROYAL*   CLEAR     81  63  54 N3        30.06F
LURAY*         PTCLDY    86  59  39 NE3       30.07F
$$

VAZ048-049-060>072-079>083-211900-
CENTRAL AND SOUTH CENTRAL VIRGINIA

CITY           SKY/WX    TMP DP  RH WIND       PRES   REMARKS
RICHMOND       MOSUNNY   87  64  46 N10       30.02F
CHESTERFIELD*  NOT AVBL
PETERSBURG*    SUNNY     86  59  40 NE6       30.03F
HANOVER        SUNNY     87  62  43 VRB5      30.04F
TAPPAHANNOCK*  SUNNY     88  51  28 NE5       30.03F
QUINTON*       FAIR      86  66  51 N8        30.01F
CHARLOTTSVILLE SUNNY     87  62  43 NE7       30.06F
GORDONSVILLE*  CLEAR     85  65  51 CALM      30.05F
ORANGE*        SUNNY     84  61  45 CALM      30.05F
LOUISA*        SUNNY     84  63  48 N8        30.05F
BUMPASS*         N/A    N/A N/A N/A NW3       30.05
FARMVILLE*     SUNNY     89  64  42 NE10      30.04F
CREWE*         FAIR      84  64  49 CALM      30.04F
FORT PICKETT*  FAIR      85  63  47 CALM      30.05S
CHASE CITY*    FAIR      83  61  47 CALM      30.05F
CLARKSVILLE*   FAIR      86  63  45 E5        30.04F
SOUTH HILL*    SUNNY     83  64  52 NE3       30.10F
LAWRENCEVILLE* FAIR      84  63  49 CALM      30.03F
EMPORIA*       MOSUNNY   86  63  45 N6        30.04F
$$

VAZ088>098-211900-
SOUTHEAST VIRGINIA

CITY           SKY/WX    TMP DP  RH WIND       PRES   REMARKS
NORFOLK          N/A    N/A N/A N/A MISG      30.01F
VIRGINIA BEACH MOSUNNY   83  65  54 E9        30.00F
NORFOLK NAVAL  MOSUNNY   84  67  56 NE7       30.02F
WEST POINT*    SUNNY     86  61  42 N5        30.03S
SALUDA*        FAIR      81  71  71 E7        30.02F
NEWPORT NEWS   MOSUNNY   84  66  54 NE8       30.01F
LANGLEY AFB    MOSUNNY   83  69  62 E8        30.01F
FORT EUSTIS    SUNNY     89  67  46 N7        29.99F
WILLIAMSBURG*  SUNNY     91  68  46 N5        30.02F HX  95
HR EXEC AP*    FAIR      86  65  49 NE6       30.01F
FRANKLIN*      SUNNY     87  63  44 NE9       30.02F
US460-WAKEFLD  SUNNY     87  65  47 VRB7      30.02F
$$

VAZ020-022-025-037-045-211900-
WEST CENTRAL AND SOUTHWEST VIRGINIA

CITY           SKY/WX    TMP DP  RH WIND       PRES   REMARKS
STAUNTON*      MOSUNNY   82  60  47 NE5       30.11F
WAYNESBORO*    CLEAR     81  61  49 N7        30.11F
HOT SPRINGS VA PTSUNNY   73  57  57 CALM      30.23F
LYNCHBURG      PTSUNNY   83  60  45 VRB5      30.08F
DANVILLE       MOSUNNY   85  68  56 VRB5      30.05F
SOUTH BOSTON*  FAIR      85  65  52 NE3       30.04F
MARTINSVILLE   SUNNY     85  65  51 E6        30.10S
ROANOKE        MOSUNNY   85  64  49 VRB3      30.10F
BLACKSBURG     PTSUNNY   81  64  57 NE6       30.16F
DUBLIN*        MOSUNNY   81  63  54 CALM      30.15F
MARION*        CLOUDY    78  57  47 CALM      30.19S
HILLSVILLE*    SUNNY     77  56  46 CALM      30.15F
RICHLANDS*     MOCLDY    74  61  62 CALM      30.19S
WISE*          MOSUNNY   77  61  57 NE7       30.21S
ABINGDON*      CLOUDY    81  63  55 SE3       30.15F
$$

MDZ021>025-VAZ099-100-211900-
SOUTHERN MARYLAND AND THE DELMARVA PENINSULA

CITY           SKY/WX    TMP DP  RH WIND       PRES   REMARKS
PATUXENT RIVER MOSUNNY   84  64  50 N7        30.02F
BAY BRIDGE APT MOSUNNY   81  66  61 N7        30.03S
LEONARDTOWN    SUNNY     81  63  54 N5        30.04S
DOVER          MOSUNNY   84  61  45 N10G20    29.98F
GEORGETOWN     SUNNY     85  63  47 N12       30.00F
EASTON         MOSUNNY   84  66  54 N5        30.05F
CAMBRIDGE      SUNNY     82  66  57 N7        30.01F
SALISBURY      PTSUNNY   85  65  51 N10       30.00S
OCEAN CITY     SUNNY     83  65  54 NE12      30.00F
WALLOPS ISLAND PTSUNNY   81  67  62 E8        30.00F
ACCOMACK*      SUNNY     82  71  70 NW10      30.01F
$$

NCZ012>017-030>032-211900-
NORTH CENTRAL AND EASTERN NORTH CAROLINA

CITY           SKY/WX    TMP DP  RH WIND       PRES   REMARKS
ROANOKE RAPIDS FAIR      82  64  54 NE6       30.03F
RALEIGH        MOSUNNY   87  65  47 NE7       30.03F
ELIZABETH CITY SUNNY     88  68  51 VRB3      30.00F
AHOSKIE*         N/A     84  65  52 N5        30.03F
EDENTON*       MOSUNNY   87  65  48 CALM      30.02F
CURRITUCK*     SUNNY     83  68  59 NE6       30.02S
KILL DEVIL HLS SUNNY     78  67  69 CALM      30.01S
MANTEO         SUNNY     82  67  60 NE7       30.02F
CAPE HATTERAS  SUNNY     85  69  58 VRB6      30.01F
TARBORO*       NOT AVBL
GOLDSBORO      MOSUNNY   89  69  50 N3        29.99F
WASHINGTON     MOSUNNY   85  67  54 CALM      30.01F
GREENVILLE     MOSUNNY   84  70  61 NE6       30.03F
NEW BERN       CLOUDY    84  70  62 E10       30.01F THUNDER
WILMINGTON     MOSUNNY   86  72  62 SE9       30.00F
$$

VAZ048-211900-
ELSEWHERE

CITY           SKY/WX    TMP DP  RH WIND       PRES   REMARKS
HARRISBURG PA  MOSUNNY   84  67  56 W12       30.03F
BALTIMORE      PTSUNNY   86  63  45 NE9       30.02F
ANNAPOLIS      MOSUNNY   84  67  56 N3        30.02F
ANDREWS AFB    MOSUNNY   84  64  49 N5        30.02F
PHILADELPHIA   MOSUNNY   86  61  42 N10       29.99F
HENDERSON NC   MOSUNNY   84  64  52 NE8       30.04F
GREENSBORO     MOSUNNY   85  66  53 E10       30.05F
ROCKY MOUNT    CLOUDY    86  68  54 NE6       30.02F
$$

VAZ100-211900-
MARINE

STATION/POSITION TIME  TEMP    WIND        PRES    WAVE   SWELL
                       AIR SEA DIR/SP/G            HT/PER HT/PER
                 (UTC) (F)     (DEG/KT/KT) (MB)    (FT/S) (FT/S)
BRANDYWINE LGT   1742   76     320/  5/  6 1016.1F
CAPE MAY NJ      1742   81 74  330/  3/  7 1015.3F
LEWES DE         1742   76 74  340/  8/ 10 1015.6F
15NM E FENWICK I 1750   74 72  320/  6/  8 1016.1F   4/10   3/10
OCEAN-CITY-INLET 1742   79 74   20/  9/ 12 1016.2F
WACHAPREAGUE VA  1742   81 77  110/  2/  5 1016.1F
THOMAS POINT MD  1800   76 76   30/  8/  9   N/A
GOOSES REEF MD   1800   77 77  350/  4/  4 1017.3
COVE POINT MD    1742   76     340/  8/  9 1017.4F
SOLOMONS ISLAND  1742   80 76   10/  5/  9 1016.2F
BISHOPS HEAD MD  1742   77 78  280/ 10/ 11 1016.7F
PINEY POINT MD   1736          320/  7/  8   N/A
POTOMAC MD       1800   78 77     CALM     1015.9    0
CAMBRIDGE MD     1742   85 77              1017.3F
LEWISETTA VA     1742   80 76  270/  2/  3 1016.5F
RAPPAHANNOCK LGT 1736          350/  5/  7 1017.2F
STINGRAY PT      1800   77 77   70/  4/  4 1016.9    1
YORK RVR RNG VA  1742   77      80/  6/  7 1017.0F
YORKTOWN VA      1736   79 76   90/  7/  7 1016.1F
JAMESTOWN VA     1800      79  350/ 10/ 16   N/A     0
DOMINION TERM VA 1736   79     160/  2/  3 1016.6F
KIPTOPEKE VA     1736      75                N/A
CHES BAY BRIDGE  1736   75 75   10/  3/  4 1016.5F
CAPE HENRY VA    1736   77      10/  3/  4   N/A
WILLOUBY STN VA  1736   76      80/  5/  6 1016.5F
S CRANEY ISL VA  1736   79      20/  4/  5 1016.2F
CAPE HENRY BUOY  1800      78                N/A     3/12   2/12
1ST LANDING BUOY 1800   76 77              1016.3    1/ 4
64NM E OF VA BCH 1750   72 72  320/  6/  6 1016.6F   7/11   7/11
DUCK PIER NC     1736   75 76   20/  8/  9 1016.1F
44056 DUCK FRF   1730      76                N/A     4/12   2/12
OREGON INLET NC  1736   77 77  360/  8/  9 1016.3F
HATTERAS NC      1736   79 77   10/  4/  6 1016.3F
DIAMOND SHLS NC  1750   78 78  350/  4/  4 1016.1F   5/11   5/11
CAPE LOOKOUT NC  1800   80     110/  5/  6 1015.6F
$$



USA.gov is the U.S. government's official web portal to all federal, state and local government web resources and services.